Location: Excel
(51.3833°N, 110.5667°W)
Time: 20:03:36
(UTC+00:00)

Envisat - Pass Details

Date: 07 December 2021
Orbit: 764 x 766 km, 98.2° (Epoch: 26 January)

Event Time Altitude Azimuth Distance (km) Brightness Sun altitude
Rises 23:56:11 0° 184° (S) 3,221 6.7 -6.3°
Reaches altitude 10° 23:58:35 10° 191° (S) 2,300 6.1 -6.6°
Maximum altitude 00:03:24 43° 262° (W) 1,073 4.4 -7.3°
Drops below altitude 10° 00:08:16 10° 334° (NNW) 2,317 5.5 -7.9°
Sets 00:10:42 0° 341° (NNW) 3,248 6.2 -8.3°
